[[{"header":{"parameterUnit":"m.s-1","parameterCategory":1,"la1":30.2991,"la2":30.254,"lo1":-89.0895,"lo2":-89.0444,"dy":0.0017,"dx":0.0017,"nx":28,"ny":28,"refTime":"2024-06-17T21:00:00:Z","depth":0,"parameterNumber":2,"parameterNumberName":"U-component_of_WINDS"},"data":[0,0,0,0,0,0,0,0,0,0,0,0,0,0,0,0,0,0,0,0,0,0,0,0,0,0,0,0,0,0,0,0,0,0,0,0,0,0,0,0,0,0,0,0,0,0,0,0,0,0,0,0,0,0,0,0,0,0,-7.4403,-7.4404,0,-7.4419,-7.4419,-7.4419,-7.4203,-7.4197,-7.4192,-7.4186,-7.4202,-7.4207,-7.4213,0,0,0,0,0,0,0,0,0,0,0,0,0,-7.4187,-7.4192,-7.4403,-7.4404,-7.4404,-7.4419,-7.4419,-7.4419,-7.4204,-7.4197,-7.419,-7.4183,-7.42,-7.4207,-7.4214,0,0,0,0,0,0,0,0,0,0,0,0,0,-7.425,-7.4193,-7.4403,-7.4298,-7.4289,-7.4419,-7.4419,-7.4419,-7.4206,-7.4197,-7.4188,-7.418,-7.4197,-7.4206,-7.4215,-7.4445,0,0,-7.4242,-7.4245,0,0,0,0,0,0,0,0,-7.4246,-7.4258,-7.4314,-7.4306,-7.4296,-7.43,-7.4348,-7.4428,-7.4208,-7.4238,-7.4186,-7.4176,-7.4242,-7.4246,-7.4268,-7.4446,-7.4447,-7.4242,-7.4248,-7.4252,-7.4254,0,0,0,0,0,0,0,-7.4242,-7.4256,-7.4409,-7.4315,-7.4304,-7.425,-7.4249,-7.4362,-7.4289,-7.4234,-7.4219,-7.4223,-7.4235,-7.426,-7.4267,-7.4447,-7.4242,-7.425,-7.4255,-7.4259,-7.4814,-7.4823,0,0,0,0,0,0,-7.4252,-7.4254,-7.4409,-7.441,-7.4249,-7.4261,-7.426,-7.4308,-7.4287,-7.4275,-7.4231,-7.4213,-7.425,-7.4257,-7.4267,-7.4535,-7.4252,-7.426,-7.4265,-7.4805,-7.4816,-7.4826,0,0,0,0,0,0,-7.4248,-7.4268,-7.4408,-7.4327,-7.4341,-7.4274,-7.4329,-7.4313,-7.4338,-7.4284,-7.427,-7.4271,-7.4243,-7.4254,-7.4402,-7.4533,-7.4264,-7.4272,-7.4793,-7.4808,-7.4821,-7.5075,0,0,0,0,0,0,-7.4243,-7.4268,-7.4355,-7.4331,-7.4346,-7.4545,-7.4337,-7.4319,-7.4354,-7.4331,-7.4318,-7.4307,-7.4237,-7.439,-7.4411,-7.454,-7.4279,-7.4781,-7.48,-7.4817,-7.5054,-7.5096,-7.5131,0,0,0,0,0,-7.4236,-7.4426,-7.4361,-7.4381,-7.4454,-7.4553,-7.4561,-7.4477,-7.4365,-7.4452,-7.4417,-7.4308,-7.4515,-7.4407,-7.4429,-7.4562,-7.4773,-7.4795,-7.4815,-7.5037,-7.5087,-7.513,0,0,0,0,0,0,-7.4467,-7.4421,-7.4348,-7.4536,-7.455,-7.4516,-7.4623,-7.4533,-7.4579,-7.4555,-7.4448,-7.4447,-7.4613,-7.4602,-7.4483,-7.4784,-7.4624,-7.4651,-7.4785,-7.4833,-7.4871,-7.487,-7.4286,0,0,0,0,0,-7.454,-7.4625,-7.4579,-7.4749,-7.476,-7.4691,-7.4731,-7.4664,-7.4674,-7.4679,-7.4655,-7.4669,-7.4737,-7.4784,-7.4844,-7.5051,-7.5045,-7.5154,-7.5192,-7.5224,-7.5248,-7.5357,-7.5404,-7.4896,-7.4896,-7.4895,0,0,-7.4692,-7.4677,-7.4736,-7.4795,-7.4798,-7.4887,-7.4698,-7.48,-7.4865,-7.4694,-7.4833,-7.4816,-7.4824,-7.5003,-7.5081,-7.4999,-7.5387,-7.5251,-7.5277,-7.5284,-7.5384,-7.5432,-7.5475,-7.491,-7.4908,-7.4906,0,0,-7.5013,-7.5011,-7.5152,-7.5159,-7.5166,-7.5118,-7.5153,-7.5133,-7.5115,-7.5252,-7.5126,-7.5201,-7.5321,-7.5332,-7.5353,-7.5679,-7.558,-7.5701,-7.5902,-7.6009,-7.6049,-7.6084,-7.62,-7.6243,-7.5726,-7.5727,-7.5727,0,-7.5201,-7.533,-7.5236,-7.5347,-7.5376,-7.5226,-7.5368,-7.5379,-7.5406,-7.543,-7.5338,-7.5484,-7.5479,-7.5659,-7.5738,-7.5761,-7.5796,-7.5702,-7.6051,-7.6085,-7.6117,-7.6226,-7.627,-7.5741,-7.574,-7.5738,-7.5737,0,-7.556,-7.5652,-7.5765,-7.5794,-7.5836,-7.5963,-7.5887,-7.5941,-7.5871,-7.5834,-7.5975,-7.5964,-7.6019,-7.6056,-7.5989,-7.6226,-7.6175,-7.607,-7.5907,-7.6182,-7.6283,-7.6324,-7.5762,-7.5757,-7.5753,-7.5749,0,0,-7.6028,-7.6003,-7.6047,-7.6058,-7.6054,-7.6123,-7.6242,-7.6296,-7.6344,-7.6367,-7.6464,-7.6569,-7.6471,-7.6495,-7.6427,-7.6522,-7.6781,-7.6403,-7.6402,-7.6474,-7.7041,-7.7121,-7.7171,-7.6714,-7.6722,-7.6728,-7.704,0,-7.634,-7.6543,-7.6461,-7.6671,-7.6754,-7.6612,-7.6716,-7.6725,-7.6694,-7.6759,-7.6723,-7.6799,-7.6664,-7.6678,-7.6765,-7.6731,-7.6893,-7.6707,-7.6804,-7.6808,-7.6806,-7.7224,-7.7309,-7.7604,-7.7079,-7.7086,-7.7091,0,-7.6732,-7.6771,-7.699,-7.6971,-7.7003,-7.7098,-7.714,-7.7204,-7.7212,-7.7182,-7.721,-7.7121,-7.7236,-7.7074,-7.7231,-7.7107,-7.7141,-7.7131,-7.714,-7.7146,-7.6966,-7.7241,-7.7696,-7.7741,-7.7152,-7.7147,-7.7143,0,-7.7052,-7.7159,-7.7303,-7.7317,-7.7299,-7.7369,-7.7365,-7.7363,-7.74,-7.7437,-7.746,-7.751,-7.7538,-7.7579,-7.7506,-7.7395,-7.7674,-7.7505,-7.7652,-7.7654,-7.7717,-7.7714,-7.8184,-7.774,-7.774,-7.7739,-7.7738,0,-7.7409,-7.7548,-7.7446,-7.7535,-7.7686,-7.7591,-7.7743,-7.7723,-7.7723,-7.7805,-7.7685,-7.7765,-7.7664,-7.7734,-7.7678,-7.7817,-7.783,-7.7809,-7.7792,-7.782,-7.7823,-7.7841,-7.7819,-7.775,-7.7748,-7.7746,-7.7744,0,-7.7791,-7.7729,-7.7876,-7.7847,-7.7843,-7.7956,-7.7931,-7.8011,-7.7971,-7.8076,-7.8096,-7.8033,-7.8109,-7.804,-7.8113,-7.8075,-7.826,-7.8214,-7.8258,-7.8245,-7.8395,-7.8382,-7.8894,-7.8956,-7.8473,-7.8477,-7.8481,0,-7.8024,-7.8127,-7.8109,-7.8156,-7.8159,-7.8235,-7.8273,-7.8183,-7.8227,-7.8243,-7.8322,-7.8387,-7.8435,-7.8563,-7.8524,-7.8579,-7.8533,-7.8709,-7.8541,-7.8565,-7.8536,-7.8531,-7.854,-7.8743,-7.8749,-7.8754,-7.8757,0,-7.8443,-7.8406,-7.8465,-7.8514,-7.8562,-7.8596,-7.862,-7.8665,-7.8572,-7.8628,-7.8704,-7.8741,-7.8815,-7.8882,-7.8925,-7.8919,-7.8824,-7.8811,-7.8847,-7.8876,-7.8898,-7.8888,-7.8351,-7.8799,-7.8795,-7.8792,-7.879,-7.8788,-7.8756,-7.8842,-7.8843,-7.8912,-7.8921,-7.8946,-7.902,-7.899,-7.9052,-7.9105,-7.9048,-7.9141,-7.9145,-7.9192,-7.9199,-7.927,-7.9196,-7.925,-7.9263,-7.9278,-7.93,-7.8887,-7.9277,-7.9276,-7.9275,-7.9274,-7.9273,0,-7.9169,-7.9162,-7.9227,-7.9265,-7.932,-7.9225,-7.9246,-7.9298,-7.9382,-7.9394,-7.9443,-7.9531,-7.9595,-7.9561,-7.9617,-7.968,-7.9638,-7.9698,-7.9692,-7.9693,-7.9362,-7.9325,-7.9731,-7.9731,-7.9731,-7.9731,-7.9731,-7.9731,-7.939,-7.9529,-7.9493,-7.9636,-7.9627,-7.9718,-7.9738,-7.9761,-7.977,-7.9873,-7.9926,-7.9903,-7.9897,-7.9951,-8.0006,-7.9994,-8.002,-8.0096,-8.0069,-7.9761,-7.9716,-7.9673,-7.9637,-8.0103,-8.0103,-8.0393,-8.0396,-8.0398]},{"header":{"parameterUnit":"m.s-1","parameterCategory":1,"la1":30.2991,"la2":30.254,"lo1":-89.0895,"lo2":-89.0444,"dy":0.0017,"dx":0.0017,"nx":28,"ny":28,"refTime":"2024-06-17T21:00:00:Z","depth":0,"parameterNumber":3,"parameterNumberName":"V-component_of_WINDS"},"data":[0,0,0,0,0,0,0,0,0,0,0,0,0,0,0,0,0,0,0,0,0,0,0,0,0,0,0,0,0,0,0,0,0,0,0,0,0,0,0,0,0,0,0,0,0,0,0,0,0,0,0,0,0,0,0,0,0,0,-3.0783,-3.0783,0,-3.077,-3.077,-3.077,-3.071,-3.0708,-3.0707,-3.0706,-3.0693,-3.0694,-3.0695,0,0,0,0,0,0,0,0,0,0,0,0,0,-3.0754,-3.0755,-3.0783,-3.0783,-3.0783,-3.077,-3.077,-3.077,-3.071,-3.0708,-3.0707,-3.0705,-3.0693,-3.0694,-3.0695,0,0,0,0,0,0,0,0,0,0,0,0,0,-3.0757,-3.0755,-3.0783,-3.0751,-3.0748,-3.077,-3.077,-3.077,-3.071,-3.0708,-3.0706,-3.0704,-3.0692,-3.0694,-3.0695,-3.0747,0,0,-3.07,-3.07,0,0,0,0,0,0,0,0,-3.0757,-3.0758,-3.0756,-3.0754,-3.075,-3.0739,-3.0755,-3.0762,-3.0711,-3.0725,-3.0706,-3.0703,-3.071,-3.071,-3.0712,-3.0746,-3.0746,-3.07,-3.0701,-3.0701,-3.0702,0,0,0,0,0,0,0,-3.0757,-3.0758,-3.0778,-3.0756,-3.0753,-3.0737,-3.0735,-3.0756,-3.073,-3.0723,-3.0719,-3.0718,-3.0708,-3.0711,-3.0712,-3.0746,-3.07,-3.0701,-3.0702,-3.0703,-3.0818,-3.082,0,0,0,0,0,0,-3.0761,-3.0758,-3.0778,-3.0778,-3.0748,-3.0739,-3.0737,-3.0745,-3.0729,-3.0725,-3.072,-3.0716,-3.071,-3.071,-3.0711,-3.0768,-3.0701,-3.0703,-3.0704,-3.0816,-3.0819,-3.0821,0,0,0,0,0,0,-3.0761,-3.0763,-3.0779,-3.0767,-3.0767,-3.0742,-3.0751,-3.0746,-3.0749,-3.0727,-3.0722,-3.0728,-3.0708,-3.0709,-3.0738,-3.0767,-3.0703,-3.0705,-3.0813,-3.0817,-3.082,-3.0885,0,0,0,0,0,0,-3.076,-3.0764,-3.0783,-3.0768,-3.0768,-3.0807,-3.0753,-3.0747,-3.0751,-3.0745,-3.0733,-3.0729,-3.0706,-3.0736,-3.0739,-3.0768,-3.0706,-3.0811,-3.0815,-3.0819,-3.088,-3.089,-3.0899,0,0,0,0,0,-3.0759,-3.0803,-3.0785,-3.0788,-3.0793,-3.0808,-3.0809,-3.0782,-3.0754,-3.0773,-3.0759,-3.0729,-3.0764,-3.0739,-3.0743,-3.0772,-3.0809,-3.0814,-3.0818,-3.0876,-3.0888,-3.0899,0,0,0,0,0,0,-3.0824,-3.0801,-3.078,-3.082,-3.0817,-3.0798,-3.0822,-3.0796,-3.0801,-3.0795,-3.0762,-3.0759,-3.0792,-3.0785,-3.0759,-3.082,-3.0781,-3.0787,-3.0824,-3.0835,-3.0844,-3.0845,-3.0707,0,0,0,0,0,-3.0843,-3.0858,-3.0836,-3.0874,-3.0873,-3.0848,-3.0854,-3.0833,-3.0828,-3.0827,-3.0814,-3.081,-3.082,-3.0827,-3.0835,-3.0879,-3.0874,-3.0901,-3.091,-3.0918,-3.0923,-3.0944,-3.0955,-3.0837,-3.0837,-3.0837,0,0,-3.0883,-3.0872,-3.0883,-3.0887,-3.0882,-3.0897,-3.0847,-3.0866,-3.0877,-3.0829,-3.0855,-3.0846,-3.0839,-3.0875,-3.0891,-3.087,-3.0954,-3.0924,-3.0931,-3.0932,-3.095,-3.0961,-3.0971,-3.084,-3.084,-3.0839,0,0,-3.0962,-3.0956,-3.0985,-3.0981,-3.0973,-3.0955,-3.0962,-3.0947,-3.0939,-3.0964,-3.0928,-3.094,-3.0958,-3.0954,-3.0954,-3.1029,-3.1002,-3.1033,-3.1082,-3.1102,-3.1111,-3.1119,-3.1144,-3.1154,-3.1038,-3.1039,-3.1039,0,-3.1013,-3.1034,-3.1004,-3.1024,-3.1026,-3.0983,-3.1011,-3.1008,-3.1004,-3.1006,-3.0983,-3.1003,-3.0996,-3.1029,-3.1047,-3.1049,-3.1055,-3.1034,-3.1112,-3.112,-3.1127,-3.1151,-3.116,-3.1042,-3.1042,-3.1041,-3.1041,0,-3.1095,-3.1111,-3.1135,-3.1131,-3.1135,-3.116,-3.1133,-3.1141,-3.1119,-3.1104,-3.1129,-3.1118,-3.1122,-3.1128,-3.1108,-3.1158,-3.1145,-3.1118,-3.1078,-3.1142,-3.1164,-3.1173,-3.1048,-3.1046,-3.1045,-3.1044,0,0,-3.1217,-3.1193,-3.1203,-3.1199,-3.1186,-3.1197,-3.1219,-3.1222,-3.1229,-3.1226,-3.1243,-3.1258,-3.1231,-3.1232,-3.121,-3.1228,-3.1286,-3.1198,-3.1197,-3.1214,-3.1338,-3.1359,-3.137,-3.1267,-3.1269,-3.127,-3.1338,0,-3.1292,-3.1328,-3.13,-3.134,-3.1353,-3.1311,-3.1329,-3.1323,-3.1309,-3.1317,-3.1301,-3.1311,-3.1277,-3.1276,-3.1292,-3.1276,-3.131,-3.1271,-3.1282,-3.1282,-3.1284,-3.1381,-3.1403,-3.1468,-3.1347,-3.1348,-3.1349,0,-3.1385,-3.1385,-3.1426,-3.1408,-3.1412,-3.143,-3.1429,-3.1437,-3.1428,-3.1416,-3.1416,-3.1389,-3.1407,-3.1368,-3.1393,-3.1366,-3.1369,-3.1361,-3.1363,-3.1363,-3.132,-3.1382,-3.1488,-3.1498,-3.1363,-3.1362,-3.1361,0,-3.1467,-3.1478,-3.1504,-3.1502,-3.1482,-3.1494,-3.1487,-3.1475,-3.1478,-3.1477,-3.1478,-3.148,-3.1481,-3.1482,-3.1456,-3.143,-3.1483,-3.1442,-3.1473,-3.1474,-3.1486,-3.1486,-3.1593,-3.149,-3.149,-3.1489,-3.1489,0,-3.1554,-3.158,-3.154,-3.1556,-3.1584,-3.1551,-3.1579,-3.1567,-3.1557,-3.1569,-3.1533,-3.1545,-3.1509,-3.1517,-3.1496,-3.1519,-3.152,-3.151,-3.1504,-3.1513,-3.1514,-3.1514,-3.1509,-3.1492,-3.1491,-3.1491,-3.149,0,-3.1651,-3.1626,-3.165,-3.1628,-3.1623,-3.1644,-3.1625,-3.1638,-3.162,-3.1636,-3.1637,-3.161,-3.1617,-3.159,-3.1594,-3.158,-3.1613,-3.16,-3.1616,-3.1611,-3.1643,-3.164,-3.1754,-3.1766,-3.1656,-3.1657,-3.1658,0,-3.1707,-3.1727,-3.1706,-3.1711,-3.1704,-3.1713,-3.1715,-3.1683,-3.1686,-3.1676,-3.169,-3.1693,-3.1695,-3.1708,-3.1688,-3.1689,-3.1676,-3.1715,-3.1676,-3.1683,-3.1675,-3.1673,-3.1674,-3.1723,-3.1725,-3.1726,-3.1727,0,-3.181,-3.1795,-3.1799,-3.1798,-3.1801,-3.1799,-3.1794,-3.1801,-3.1765,-3.1771,-3.1777,-3.1778,-3.178,-3.1783,-3.178,-3.1772,-3.1743,-3.1739,-3.1746,-3.1755,-3.1763,-3.1758,-3.1637,-3.1737,-3.1736,-3.1735,-3.1735,-3.1734,-3.1887,-3.1901,-3.1888,-3.1893,-3.1886,-3.1882,-3.1892,-3.1875,-3.1879,-3.1878,-3.1858,-3.1868,-3.1856,-3.1849,-3.1842,-3.1849,-3.183,-3.1841,-3.1843,-3.1846,-3.1851,-3.1762,-3.1848,-3.1848,-3.1848,-3.1847,-3.1847,0,-3.1986,-3.1975,-3.198,-3.1974,-3.1977,-3.1949,-3.1942,-3.1946,-3.1955,-3.1946,-3.1947,-3.1954,-3.1956,-3.1936,-3.1936,-3.1945,-3.1931,-3.1946,-3.1944,-3.1942,-3.1869,-3.1862,-3.1956,-3.1956,-3.1956,-3.1956,-3.1956,-3.1956,-3.2038,-3.206,-3.2044,-3.2061,-3.2049,-3.2057,-3.2055,-3.2051,-3.2043,-3.2051,-3.2053,-3.2039,-3.2025,-3.2023,-3.2024,-3.2018,-3.2019,-3.2038,-3.2027,-3.1958,-3.1948,-3.1938,-3.1931,-3.2038,-3.2039,-3.21,-3.21,-3.2101]}]]